Martha's Vineyard, MA

9:30 PM EDT on April 26, 2017 (GMT -0400)
Martha's Vineyard

Weather History for KMVY - January, 2012

Change the Weather History Date:

Thursday, January 26, 2012

  Actual Average Record
Temperature  
Mean Temperature 38 °F -  
Max Temperature 42 °F 40 °F 54 °F (1990)
Min Temperature 33 °F 25 °F -1 °F (1961)
Degree Days  
Heating Degree Days 28    
Moisture  
Dew Point 31 °F    
Average Humidity 79    
Maximum Humidity 93    
Minimum Humidity 65    
Precipitation  
Precipitation 0.21 in - - ()
Sea Level Pressure  
Sea Level Pressure 30.15 in    
Wind  
Wind Speed 3 mph (East)    
Max Wind Speed 10 mph    
Max Gust Speed -    
Visibility 8 miles    
Events Rain , Snow    
Averages and records for this station are not official NWS values.
T = Trace of Precipitation, MM = Missing Value Source: NWS Daily Summary

Daily Weather History Graph

Daily Weather History Graph

Search for Another Location

Airport or City:

Trip Planner

Search our weather history database for the weather conditions in past years. The results will help you decide how hot, cold, wet, or windy it might be!

Date:

Astronomy

Jan. 26, 2012 Rise Set
Actual Time 6:59 AM EST 4:50 PM EST
Civil Twilight 6:30 AM EST 5:20 PM EST
Nautical Twilight 5:56 AM EST 5:53 PM EST
Astronomical Twilight 5:23 AM EST 6:26 PM EST
Moon 8:22 AM EST (1/26) 8:43 PM EST (1/26)
Length of Visible Light 10h 50m
Length of Day
9h 50m
Waxing Crescent, 12% of the Moon is Illuminated
Jan 26
Waxing Crescent
Jan 30
First Quarter
Feb 7
Full
Feb 14
Last Quarter
Feb 21
New

Hourly Weather History & Observations

Time (EST) Temp. Windchill Dew Point Humidity Pressure Visibility Wind Dir Wind Speed Gust Speed Precip Events Conditions
12:53 AM 34.0 °F - 26.1 °F 73% 30.16 in 10.0 mi Calm Calm - N/A   Clear
1:53 AM 35.1 °F 31.0 °F 26.1 °F 70% 30.19 in 10.0 mi West 4.6 mph - N/A   Clear
2:53 AM 36.0 °F - 27.0 °F 70% 30.19 in 10.0 mi Calm Calm - N/A   Mostly Cloudy
3:53 AM 36.0 °F - 27.0 °F 70% 30.19 in 10.0 mi Calm Calm - N/A   Overcast
4:53 AM 37.0 °F 34.5 °F 27.0 °F 67% 30.19 in 10.0 mi North 3.5 mph - 0.00 in   Overcast
5:31 AM 35.6 °F 32.8 °F 28.4 °F 75% 30.19 in 2.5 mi North 3.5 mph - 0.02 in Snow Light Snow
5:40 AM 33.8 °F 29.6 °F 30.2 °F 87% 30.18 in 5.0 mi NNE 4.6 mph - 0.05 in Snow Light Snow
5:53 AM 34.0 °F - 30.0 °F 85% 30.18 in 9.0 mi Calm Calm - 0.07 in Rain Rain
6:17 AM 33.8 °F 29.6 °F 30.2 °F 87% 30.22 in 2.5 mi NW 4.6 mph - 0.03 in Snow Light Snow
6:28 AM 33.8 °F 30.8 °F 30.2 °F 87% 30.22 in 1.8 mi WNW 3.5 mph - 0.04 in Snow Light Snow
6:40 AM 33.8 °F - 30.2 °F 87% 30.22 in 2.5 mi Calm Calm - 0.05 in Snow Light Snow
6:53 AM 34.0 °F - 32.0 °F 92% 30.21 in 3.0 mi Calm Calm - 0.05 in Snow Light Snow
7:21 AM 33.8 °F - 30.2 °F 87% 30.20 in 8.0 mi Calm Calm - 0.00 in   Overcast
7:53 AM 33.1 °F - 30.9 °F 92% 30.20 in 7.0 mi Calm Calm - 0.00 in   Overcast
9:53 AM 37.9 °F - 30.9 °F 76% 30.22 in 10.0 mi Calm Calm - N/A   Clear
10:53 AM 39.9 °F 37.8 °F 30.0 °F 68% 30.21 in 10.0 mi NNW 3.5 mph - N/A   Scattered Clouds
11:53 AM 41.0 °F - 30.0 °F 65% 30.17 in 10.0 mi Calm Calm - N/A   Partly Cloudy
12:10 PM 41.0 °F 39.0 °F 30.2 °F 65% 30.16 in 10.0 mi SE 3.5 mph - N/A   Mostly Cloudy
12:28 PM 41.0 °F 39.0 °F 30.2 °F 65% 30.16 in 10.0 mi East 3.5 mph - N/A   Scattered Clouds
12:53 PM 41.0 °F 39.0 °F 30.9 °F 67% 30.16 in 10.0 mi South 3.5 mph - N/A   Mostly Cloudy
1:53 PM 41.0 °F 37.1 °F 30.0 °F 65% 30.15 in 10.0 mi East 5.8 mph - N/A   Mostly Cloudy
2:53 PM 39.0 °F 33.4 °F 28.9 °F 67% 30.15 in 10.0 mi East 8.1 mph - N/A   Overcast
3:53 PM 39.0 °F 34.0 °F 28.9 °F 67% 30.14 in 10.0 mi East 6.9 mph - N/A   Mostly Cloudy
4:53 PM 37.9 °F 32.7 °F 30.0 °F 73% 30.13 in 10.0 mi ESE 6.9 mph - N/A   Overcast
5:53 PM 37.9 °F 32.7 °F 32.0 °F 79% 30.12 in 10.0 mi ESE 6.9 mph - 0.00 in Rain Light Rain
6:53 PM 37.0 °F 31.6 °F 33.1 °F 86% 30.09 in 10.0 mi ESE 6.9 mph - 0.01 in Rain Light Rain
7:53 PM 37.9 °F 34.4 °F 34.0 °F 86% 30.09 in 10.0 mi ESE 4.6 mph - 0.01 in Rain Light Rain
8:22 PM 37.4 °F 33.8 °F 35.6 °F 93% 30.07 in 10.0 mi ESE 4.6 mph - 0.01 in Rain Light Rain
8:53 PM 39.9 °F 33.9 °F 36.0 °F 86% 30.06 in 10.0 mi SE 9.2 mph - 0.01 in Rain Light Rain
9:53 PM 39.9 °F 34.5 °F 37.0 °F 89% 30.04 in 10.0 mi SE 8.1 mph - 0.01 in Rain Light Rain
10:53 PM 41.0 °F 35.8 °F 37.9 °F 89% 30.01 in 10.0 mi ESE 8.1 mph - 0.03 in Rain Light Rain
11:40 PM 42.8 °F 37.0 °F 39.2 °F 87% 29.98 in 10.0 mi ESE 10.4 mph - 0.01 in Rain Light Rain
11:53 PM 42.1 °F 37.1 °F 39.0 °F 89% 29.97 in 9.0 mi ESE 8.1 mph - 0.02 in Rain Light Rain